CW2654 Weather Reports


time (UTC)temp
C
wind
direction
speed
KPH
gust
KPH
rain 1hr
cm
rain 24hr
cm
rain mn
cm
humidity
%
barometer
mb
20260504194552 18 185 1.6 9.7 0.00 0.00 0.00 76 1013.5
20260504193048 17 229 3.2 12.9 0.00 0.00 0.00 74 1013.5
20260504191557 17 101 3.2 12.9 0.00 0.00 0.00 75 1013.5
20260504190052 17 169 3.2 12.9 0.00 0.00 0.00 76 1013.8
20260504184551 16 132 3.2 11.3 0.00 0.00 0.00 77 1013.8
20260504183050 16 219 1.6 9.7 0.00 0.00 0.00 78 1013.9
20260504181557 16 0 3.2 8.0 0.00 0.00 0.00 78 1013.8
20260504180051 16 186 1.6 9.7 0.00 0.00 0.00 78 1013.8
20260504174611 15 170 0.0 6.4 0.00 0.00 0.00 82 1013.9
20260504173055 14 247 3.2 12.9 0.00 0.00 0.00 82 1013.6
20260504171555 14 274 1.6 12.9 0.00 0.00 0.00 82 1013.6
20260504090104 12 86 3.2 6.4 0.00 0.00 0.00 86 1009.4
20260504081555 12 108 1.6 6.4 0.00 0.00 0.00 85 1009.3
20260504044602 17 105 3.2 9.7 0.00 0.00 0.00 76 1008.6
20260504043058 17 93 3.2 6.4 0.00 0.00 0.00 75 1008.5
20260504041554 17 106 3.2 9.7 0.00 0.00 0.00 74 1008.4
20260504040114 18 103 3.2 9.7 0.00 0.00 0.00 73 1008.4
20260504034622 19 106 3.2 4.8 0.00 0.00 0.00 70 1008.1
20260504033055 20 105 1.6 6.4 0.00 0.00 0.00 67 1008.0
20260504031552 21 96 0.0 4.8 0.00 0.00 0.00 62 1007.9
20260504030119 22 99 0.0 6.4 0.00 0.00 0.00 57 1008.0
20260504024600 23 0 1.6 4.8 0.00 0.00 0.00 54 1007.8
20260504023050 25 101 1.6 4.8 0.00 0.00 0.00 50 1007.7
20260504021557 27 0 0.0 4.8 0.00 0.00 0.00 42 1007.9
20260504020107 27 0 0.0 3.2 0.00 0.00 0.00 38 1007.9
20260504014601 28 0 0.0 3.2 0.00 0.00 0.00 37 1008.0
20260504013056 28 0 0.0 4.8 0.00 0.00 0.00 30 1008.0
20260504011553 28 0 0.0 6.4 0.00 0.00 0.00 31 1008.1
20260504010058 28 0 0.0 3.2 0.00 0.00 0.00 29 1008.3
20260504004601 28 0 0.0 4.8 0.00 0.00 0.00 35 1008.5
20260504003055 29 336 0.0 8.0 0.00 0.00 0.00 27 1008.5
20260504001608 29 319 0.0 6.4 0.00 0.00 0.00 28 1008.5
20260504000056 29 0 1.6 4.8 0.00 0.00 0.00 28 1008.5
20260503234553 29 0 0.0 4.8 0.00 0.00 0.00 29 1008.6
20260503233053 30 333 1.6 6.4 0.00 0.00 0.00 29 1008.8
20260503231556 30 0 0.0 6.4 0.00 0.00 0.00 30 1008.8
20260503230054 30 347 0.0 8.0 0.00 0.00 0.00 35 1009.1
20260503224554 30 340 0.0 4.8 0.00 0.00 0.00 33 1009.2
20260503223052 30 0 0.0 6.4 0.00 0.00 0.00 33 1009.3
20260503221553 30 0 1.6 8.0 0.00 0.00 0.00 29 1009.7
20260503220053 29 0 0.0 20.9 0.00 0.00 0.00 32 1009.9
20260503214600 29 0 0.0 14.5 0.00 0.00 0.00 32 1010.1
20260503213052 28 9 1.6 9.7 0.00 0.00 0.00 34 1010.1
20260503211554 28 360 1.6 14.5 0.00 0.00 0.00 36 1010.2
20260503210052 28 158 0.0 11.3 0.00 0.00 0.00 33 1010.2
20260503204602 27 273 1.6 14.5 0.00 0.00 0.00 38 1010.2
20260503203055 27 0 1.6 6.4 0.00 0.00 0.00 40 1010.5
20260503201556 26 319 1.6 8.0 0.00 0.00 0.00 41 1010.8
20260503200053 26 331 3.2 8.0 0.00 0.00 0.00 43 1010.9